When you browse on this site, cookies collect data to enhance your experience and personalize the content and advertising you see.
Visit our Privacy Policy to learn more. By continuing to use the site, you agree to this use of cookies and data.
  • Em Portugal
  • Lista de países
  • Para 7 dias
  • Temperatura da água
  • Mapas de satélite
  • Mapa do tempo
  • Widgets de tempo
  • user-avatar
    Iniciar Sessão

    Previsão horária em Marinka

    Hoje, 23 Maio, Quinta-feira

    Tempo Temperatura Precipitação Vento Pressão Humidade
    00:00 +14°C° 0.1 mm 3 m/s 744 mmHg 91%
    01:00 +13°C° 0 mm 3 m/s 743 mmHg 90%
    02:00 +13°C° 0 mm 3 m/s 743 mmHg 90%
    03:00 +14°C° 0 mm 2 m/s 743 mmHg 90%
    04:00 +14°C° 0 mm 2 m/s 743 mmHg 89%
    05:00 +14°C° 0 mm 2 m/s 743 mmHg 88%
    06:00 +14°C° 0 mm 2 m/s 743 mmHg 87%
    07:00 +16°C° 0.1 mm 3 m/s 743 mmHg 81%
    08:00 +18°C° 0.1 mm 3 m/s 743 mmHg 75%
    09:00 +19°C° 0.1 mm 3 m/s 743 mmHg 68%
    10:00 +20°C° 0.5 mm 4 m/s 743 mmHg 65%
    11:00 +21°C° 0.5 mm 4 m/s 743 mmHg 61%
    12:00 +22°C° 0.5 mm 5 m/s 742 mmHg 57%
    13:00 +22°C° 0.6 mm 5 m/s 742 mmHg 58%
    14:00 +22°C° 0.6 mm 5 m/s 742 mmHg 58%
    15:00 +22°C° 0.6 mm 6 m/s 742 mmHg 59%
    16:00 +22°C° 0.2 mm 5 m/s 742 mmHg 61%
    17:00 +22°C° 0.2 mm 5 m/s 742 mmHg 63%
    18:00 +22°C° 0.2 mm 4 m/s 742 mmHg 65%
    19:00 +20°C° 0 mm 4 m/s 742 mmHg 70%
    20:00 +19°C° 0 mm 3 m/s 742 mmHg 75%
    21:00 +18°C° 0 mm 2 m/s 742 mmHg 80%
    22:00 +17°C° 0 mm 2 m/s 742 mmHg 82%
    23:00 +17°C° 0 mm 2 m/s 742 mmHg 83%

    Amanhã, 24 Maio, Sexta-feira

    Tempo Temperatura Precipitação Vento Pressão Humidade
    00:00 +16°C° 0 mm 2 m/s 743 mmHg 85%
    01:00 +16°C° 0 mm 2 m/s 743 mmHg 86%
    02:00 +15°C° 0 mm 2 m/s 743 mmHg 87%
    03:00 +15°C° 0 mm 2 m/s 743 mmHg 88%
    04:00 +15°C° 0 mm 2 m/s 743 mmHg 88%
    05:00 +16°C° 0 mm 2 m/s 743 mmHg 87%
    06:00 +16°C° 0 mm 1 m/s 743 mmHg 86%
    07:00 +19°C° 0 mm 1 m/s 743 mmHg 79%
    08:00 +21°C° 0 mm 1 m/s 744 mmHg 72%
    09:00 +23°C° 0 mm 1 m/s 744 mmHg 65%
    10:00 +24°C° 0 mm 1 m/s 744 mmHg 60%
    11:00 +25°C° 0 mm 2 m/s 744 mmHg 55%
    12:00 +26°C° 0 mm 2 m/s 744 mmHg 50%
    13:00 +26°C° 0.7 mm 2 m/s 744 mmHg 52%
    14:00 +26°C° 0.7 mm 3 m/s 744 mmHg 53%
    15:00 +26°C° 0.7 mm 3 m/s 743 mmHg 55%
    16:00 +26°C° 0.8 mm 3 m/s 743 mmHg 56%
    17:00 +25°C° 0.8 mm 2 m/s 743 mmHg 58%
    18:00 +25°C° 0.8 mm 2 m/s 743 mmHg 59%
    19:00 +23°C° 0.3 mm 2 m/s 743 mmHg 65%
    20:00 +21°C° 0.3 mm 2 m/s 743 mmHg 70%
    21:00 +19°C° 0.3 mm 2 m/s 743 mmHg 76%
    22:00 +18°C° 0 mm 2 m/s 743 mmHg 76%
    23:00 +18°C° 0 mm 2 m/s 743 mmHg 76%

    Depois de amanhã, 25 Maio, Sábado

    Tempo Temperatura Precipitação Vento Pressão Humidade
    00:00 +17°C° 0 mm 2 m/s 743 mmHg 76%
    01:00 +18°C° 0 mm 1 m/s 743 mmHg 75%
    02:00 +16°C° 0 mm 1 m/s 743 mmHg 75%
    03:00 +16°C° 0 mm 1 m/s 743 mmHg 75%
    04:00 +16°C° 0 mm 1 m/s 743 mmHg 75%
    05:00 +16°C° 0 mm 1 m/s 743 mmHg 74%
    06:00 +16°C° 0 mm 1 m/s 743 mmHg 74%
    07:00 +19°C° 0 mm 1 m/s 743 mmHg 69%
    08:00 +20°C° 0 mm 2 m/s 743 mmHg 64%
    09:00 +23°C° 0 mm 2 m/s 743 mmHg 59%
    10:00 +24°C° 0.6 mm 2 m/s 743 mmHg 56%
    11:00 +25°C° 0.6 mm 2 m/s 743 mmHg 53%
    12:00 +26°C° 0.6 mm 2 m/s 743 mmHg 50%
    13:00 +25°C° 0.2 mm 2 m/s 742 mmHg 51%
    14:00 +25°C° 0.2 mm 2 m/s 742 mmHg 52%
    15:00 +25°C° 0.2 mm 1 m/s 741 mmHg 53%
    16:00 +24°C° 1.1 mm 1 m/s 741 mmHg 59%
    17:00 +23°C° 1.1 mm 1 m/s 741 mmHg 66%
    18:00 +22°C° 1.1 mm 1 m/s 741 mmHg 73%
    19:00 +21°C° 1.6 mm 1 m/s 741 mmHg 76%
    20:00 +19°C° 1.6 mm 2 m/s 741 mmHg 79%
    21:00 +18°C° 1.6 mm 2 m/s 741 mmHg 82%
    22:00 +18°C° 0.9 mm 2 m/s 741 mmHg 84%
    23:00 +18°C° 0.9 mm 3 m/s 741 mmHg 86%

    26 Maio, Domingo

    Tempo Temperatura Precipitação Vento Pressão Humidade
    00:00 +17°C° 0.9 mm 3 m/s 741 mmHg 88%
    01:00 +17°C° 1.6 mm 4 m/s 741 mmHg 89%
    02:00 +17°C° 1.6 mm 4 m/s 741 mmHg 89%
    03:00 +17°C° 1.6 mm 4 m/s 741 mmHg 90%
    04:00 +17°C° 0.8 mm 4 m/s 741 mmHg 90%
    05:00 +17°C° 0.8 mm 3 m/s 741 mmHg 90%
    06:00 +17°C° 0.8 mm 3 m/s 741 mmHg 90%
    07:00 +17°C° 0.1 mm 3 m/s 742 mmHg 88%
    08:00 +18°C° 0.1 mm 4 m/s 742 mmHg 85%
    09:00 +19°C° 0.1 mm 4 m/s 742 mmHg 83%
    10:00 +20°C° 0.7 mm 4 m/s 742 mmHg 76%
    11:00 +22°C° 0.7 mm 4 m/s 742 mmHg 68%
    12:00 +25°C° 0.7 mm 5 m/s 743 mmHg 60%
    13:00 +25°C° 0.7 mm 5 m/s 742 mmHg 60%
    14:00 +25°C° 0.7 mm 5 m/s 742 mmHg 60%
    15:00 +24°C° 0.7 mm 6 m/s 742 mmHg 60%
    16:00 +25°C° 0.3 mm 5 m/s 742 mmHg 63%
    17:00 +25°C° 0.3 mm 5 m/s 742 mmHg 66%
    18:00 +23°C° 0.3 mm 5 m/s 743 mmHg 68%
    19:00 +22°C° 0.2 mm 4 m/s 743 mmHg 73%
    20:00 +21°C° 0.2 mm 4 m/s 743 mmHg 77%
    21:00 +20°C° 0.2 mm 3 m/s 744 mmHg 81%
    22:00 +19°C° 0 mm 3 m/s 744 mmHg 83%
    23:00 +18°C° 0 mm 3 m/s 744 mmHg 85%

    27 Maio, Segunda-feira

    Tempo Temperatura Precipitação Vento Pressão Humidade
    00:00 +18°C° 0 mm 3 m/s 745 mmHg 87%
    01:00 +17°C° 0 mm 3 m/s 745 mmHg 88%
    02:00 +17°C° 0 mm 3 m/s 745 mmHg 89%
    03:00 +16°C° 0 mm 2 m/s 746 mmHg 91%
    04:00 +17°C° 0 mm 2 m/s 746 mmHg 89%
    05:00 +17°C° 0 mm 2 m/s 747 mmHg 88%
    06:00 +17°C° 0 mm 2 m/s 747 mmHg 87%
    07:00 +19°C° 0 mm 3 m/s 747 mmHg 81%
    08:00 +20°C° 0 mm 3 m/s 748 mmHg 74%
    09:00 +22°C° 0 mm 3 m/s 748 mmHg 67%
    10:00 +24°C° 0 mm 3 m/s 749 mmHg 62%
    11:00 +25°C° 0 mm 4 m/s 749 mmHg 58%
    12:00 +27°C° 0 mm 4 m/s 749 mmHg 53%
    13:00 +27°C° 0 mm 4 m/s 749 mmHg 51%
    14:00 +28°C° 0 mm 3 m/s 749 mmHg 50%
    15:00 +28°C° 0 mm 3 m/s 749 mmHg 48%
    16:00 +28°C° 0 mm 3 m/s 749 mmHg 51%
    17:00 +28°C° 0 mm 3 m/s 749 mmHg 54%
    18:00 +27°C° 0 mm 3 m/s 749 mmHg 57%
    19:00 +25°C° 0 mm 3 m/s 749 mmHg 64%
    20:00 +24°C° 0 mm 3 m/s 749 mmHg 71%
    21:00 +21°C° 0 mm 3 m/s 750 mmHg 78%
    22:00 +20°C° 0 mm 3 m/s 750 mmHg 78%
    23:00 +19°C° 0 mm 3 m/s 750 mmHg 77%

    28 Maio, Terça-feira

    Tempo Temperatura Precipitação Vento Pressão Humidade
    00:00 +19°C° 0 mm 2 m/s 750 mmHg 77%
    01:00 +18°C° 0 mm 2 m/s 750 mmHg 77%
    02:00 +18°C° 0 mm 2 m/s 750 mmHg 77%
    03:00 +18°C° 0 mm 1 m/s 750 mmHg 78%
    04:00 +18°C° 0 mm 1 m/s 750 mmHg 78%
    05:00 +17°C° 0 mm 2 m/s 750 mmHg 78%
    06:00 +18°C° 0 mm 2 m/s 750 mmHg 79%
    07:00 +19°C° 0 mm 2 m/s 750 mmHg 73%
    08:00 +21°C° 0 mm 3 m/s 750 mmHg 67%
    09:00 +24°C° 0 mm 3 m/s 750 mmHg 60%
    10:00 +25°C° 0 mm 4 m/s 750 mmHg 58%
    11:00 +26°C° 0 mm 4 m/s 750 mmHg 55%
    12:00 +27°C° 0 mm 4 m/s 750 mmHg 53%
    13:00 +28°C° 0 mm 4 m/s 750 mmHg 53%
    14:00 +28°C° 0 mm 5 m/s 749 mmHg 53%
    15:00 +29°C° 0 mm 5 m/s 749 mmHg 54%
    16:00 +28°C° 0 mm 4 m/s 749 mmHg 56%
    17:00 +28°C° 0 mm 4 m/s 749 mmHg 59%
    18:00 +28°C° 0 mm 4 m/s 748 mmHg 61%
    19:00 +26°C° 0 mm 4 m/s 748 mmHg 66%
    20:00 +25°C° 0 mm 3 m/s 748 mmHg 70%
    21:00 +22°C° 0 mm 3 m/s 748 mmHg 75%
    22:00 +22°C° 0 mm 3 m/s 748 mmHg 77%
    23:00 +22°C° 0 mm 3 m/s 748 mmHg 78%
    Mostrar mais